"Pseudo-MPEC" for P11JI5l

Created 2023 Sep 27 1:22:11 UT using Find_Orb

Click here for an explanation of pseudo-MPECs

 
 Astrometry: 
     P11JI5l* C2023 09 16=7L0TWB^`W/S=Astrometry#=V0,'3Kd!DsZhy1y%M0\onw#Pw[HF51
     P11JI5l  C2023 09 16:7X!sEL]Gp0[8redacted;/l7o=-%SVN*\Q4Y2\M$oNQ:h;JywbbF51
     P11JI5l  C2023 09 16iTB8KOrX+FcgQwZ(vO0MCe;_5n6x1clickY,SrW)D5hDx0OP0m0lF51
     P11JI5l  C2023 09 16i9#p6hfO#ZeUEEayqr\o.J9`Zh6k67Ym:**\p3:*yIPxeOo]1dE[F51
     P11JI5l 3C2023 09 18W,pyv;iQRIxGS\)#pC-om7GX@oQZ;gkhere!]jQxZ\*][Qj=5G3XT14
     P11JI5l 3C2023 09 18T\%F)7fyarY9JWPob()E2@ddCy1W1?mkew\RvCJ0forycZ09)sA2T14
     P11JI5l 3C2023 09 18-RxqAJ'R6GF'explanation2wcdsah]`+qD!j?4bM@`x7[#49e4tT14

Station data:
(F51) Pan-STARRS 1, Haleakala  (N20.707234 W156.255910)  US/Hawaii.
   Observers J. Bulger, T. Lowe, A. Schultz, M. Willman. Measurers K.
   Chambers, S. Chastel, T. de Boer, L. Denneau, J. Fairlamb, H. Flewelling,
   M. Huber, C.-C. Lin, E. Magnier, Y. Ramanjooloo, R. Wainscoat, R. Weryk.
   1.8-m Ritchey-Chrétien + CCD.
(T14) Mauna Kea-UH/Tholen NEO Follow-Up (CFHT)  (N19.825252 W155.468876)
   US/Hawaii.  Observer R. Weryk. 3.6-m Canada-France-Hawaii Telescope.

Orbital elements:  P11JI5l
   Perihelion 2022 Aug 23.93291 +/- 344 TT = 22:23:23 (JD 2459815.43291)
Epoch 2023 Sep 18.0 TT = JDT 2460205.5   Earth MOID: 0.1700      AutoNEOCP
M 121.49274810 +/- 100              (J2000 ecliptic)
n   0.31146628 +/- 0.295            Peri.  359.26811 +/- 60
a   2.15540399 +/- 1.36             Node   281.13947 +/- 15
e   0.6072143 +/- 0.186             Incl.   27.31416 +/- 32
P   3.16                   H 16.01  G  0.15   U 12.0  SR
q 0.84661174 +/- 1.47    Q 3.46419624 +/- 27.4
From 7 observations 2023 Sept. 16-18; mean residual 0".08
Residuals in arcseconds: 
230916 F51  .08-  .18+    230916 F51  .03-  .08+    230918 T14  .00   .00     
230916 F51  .14+  .14-    230918 T14  .01+  .02+    
230916 F51  .03-  .12-    230918 T14  .00   .02-    

Ephemerides (geocentric):
Date (UTC) HH   RA             Dec           delta  r     elong  mag " sig PA
---- --------  ------------   ------------  ------ ------ -----  --- --------
2023 09 27 01  06 57 58.454   +31 16 31.76  3.2224 3.2210  81.0 22.0  276  82
2023 09 27 02  06 57 59.848   +31 16 28.69  3.2219 3.2211  81.0 22.0  278  82
2023 09 27 03  06 58 01.239   +31 16 25.62  3.2214 3.2212  81.0 22.0  281  82
2023 09 27 04  06 58 02.628   +31 16 22.56  3.2209 3.2213  81.1 22.0  283  82
2023 09 27 05  06 58 04.015   +31 16 19.50  3.2204 3.2214  81.1 22.0  286  82
2023 09 27 06  06 58 05.400   +31 16 16.44  3.2198 3.2215  81.1 22.0  289  82
2023 09 27 07  06 58 06.783   +31 16 13.38  3.2193 3.2217  81.2 22.0  291  82
2023 09 27 08  06 58 08.165   +31 16 10.32  3.2188 3.2218  81.2 22.0  294  82
2023 09 27 09  06 58 09.544   +31 16 07.27  3.2183 3.2219  81.2 22.0  296  82
2023 09 27 10  06 58 10.921   +31 16 04.21  3.2178 3.2220  81.3 22.0  299  82
2023 09 27 11  06 58 12.296   +31 16 01.16  3.2172 3.2221  81.3 22.0  302  82
2023 09 27 12  06 58 13.670   +31 15 58.11  3.2167 3.2222  81.4 22.0  304  82
2023 09 27 13  06 58 15.041   +31 15 55.07  3.2162 3.2224  81.4 22.0  307  82
2023 09 27 14  06 58 16.410   +31 15 52.02  3.2157 3.2225  81.4 22.0  310  82
2023 09 27 15  06 58 17.777   +31 15 48.98  3.2152 3.2226  81.5 22.0  312  82
2023 09 27 16  06 58 19.142   +31 15 45.94  3.2146 3.2227  81.5 22.0  315  82
2023 09 27 17  06 58 20.506   +31 15 42.90  3.2141 3.2228  81.5 22.0  318  82
2023 09 27 18  06 58 21.867   +31 15 39.86  3.2136 3.2229  81.6 22.0  321  82
2023 09 27 19  06 58 23.226   +31 15 36.82  3.2131 3.2230  81.6 22.0  323  82
2023 09 27 20  06 58 24.583   +31 15 33.79  3.2126 3.2232  81.6 22.0  326  82
2023 09 27 21  06 58 25.938   +31 15 30.76  3.2120 3.2233  81.7 22.0  329  82
2023 09 27 22  06 58 27.291   +31 15 27.73  3.2115 3.2234  81.7 22.0  332  82
2023 09 27 23  06 58 28.643   +31 15 24.70  3.2110 3.2235  81.7 22.0  334  82
2023 09 28 00  06 58 29.992   +31 15 21.68  3.2105 3.2236  81.8 22.0  337  82
2023 09 28 01  06 58 31.339   +31 15 18.65  3.2099 3.2237  81.8 22.0  340  82
2023 09 28 02  06 58 32.684   +31 15 15.63  3.2094 3.2238  81.9 22.0  343  82
2023 09 28 03  06 58 34.027   +31 15 12.61  3.2089 3.2240  81.9 22.0  346  82
2023 09 28 04  06 58 35.368   +31 15 09.60  3.2084 3.2241  81.9 22.0  349  82
2023 09 28 05  06 58 36.707   +31 15 06.58  3.2079 3.2242  82.0 22.0  351  82
2023 09 28 06  06 58 38.044   +31 15 03.57  3.2073 3.2243  82.0 22.0  354  82
2023 09 28 07  06 58 39.379   +31 15 00.55  3.2068 3.2244  82.0 22.0  357  82
2023 09 28 08  06 58 40.712   +31 14 57.55  3.2063 3.2245  82.1 22.0  360  82
2023 09 28 09  06 58 42.043   +31 14 54.54  3.2058 3.2246  82.1 22.0  363  82
2023 09 28 10  06 58 43.372   +31 14 51.53  3.2052 3.2248  82.1 22.0  366  82
2023 09 28 11  06 58 44.699   +31 14 48.53  3.2047 3.2249  82.2 22.0  369  82
2023 09 28 12  06 58 46.024   +31 14 45.53  3.2042 3.2250  82.2 22.0  372  82
2023 09 28 13  06 58 47.347   +31 14 42.53  3.2037 3.2251  82.2 22.0  375  82
2023 09 28 14  06 58 48.668   +31 14 39.53  3.2032 3.2252  82.3 22.0  378  82
2023 09 28 15  06 58 49.987   +31 14 36.54  3.2026 3.2253  82.3 22.0  381  82
2023 09 28 16  06 58 51.303   +31 14 33.54  3.2021 3.2254  82.4 22.0  384  82
2023 09 28 17  06 58 52.618   +31 14 30.55  3.2016 3.2256  82.4 22.0  387  82
2023 09 28 18  06 58 53.931   +31 14 27.56  3.2011 3.2257  82.4 22.0  390  82
2023 09 28 19  06 58 55.242   +31 14 24.58  3.2005 3.2258  82.5 22.0  393  82
2023 09 28 20  06 58 56.550   +31 14 21.59  3.2000 3.2259  82.5 22.0  396  82
2023 09 28 21  06 58 57.857   +31 14 18.61  3.1995 3.2260  82.5 22.0  399  82
2023 09 28 22  06 58 59.162   +31 14 15.63  3.1990 3.2261  82.6 22.0  402  82
2023 09 28 23  06 59 00.464   +31 14 12.65  3.1984 3.2262  82.6 22.0  405  82
2023 09 29 00  06 59 01.765   +31 14 09.67  3.1979 3.2264  82.6 22.0  408  82